Location: Newark
(12.4436°N, 0.6167°W)
Time: 05:03:20
(UTC+00:00)

Vanguard 2 Rocket - Visible Passes

Search period start: 07 December 2019 00:00
Search period end: 17 December 2019 00:00
Orbit: 554 x 3326 km, 32.9° (Epoch: 06 December)

Date Brightness Start Highest point End Pass type
(mag) Time Alt. Az. Time Alt. Az. Time Alt. Az.
07 Dec 9.0 18:45:12 10° W 18:57:26 35° NNW 19:03:14 17° NNE visible
08 Dec 9.0 03:57:10 13° SSW 03:57:10 13° SSW 03:58:52 10° S visible
08 Dec 9.2 17:40:56 10° WSW 17:56:45 50° NNW 18:06:04 10° NE visible
08 Dec 9.3 20:06:01 10° WNW 20:12:41 18° NNW 20:12:57 18° NNW visible
09 Dec 9.1 19:01:22 10° WNW 19:12:01 27° NNW 19:16:50 18° NNE visible
10 Dec 9.4 17:56:37 10° W 18:11:07 38° NNW 18:20:04 10° NE visible
10 Dec 9.5 20:22:05 10° NW 20:26:31 16° NNW 20:26:31 16° NNW visible
11 Dec 9.2 19:17:40 10° WNW 19:26:57 22° NNW 19:30:24 18° N visible
12 Dec 9.4 18:12:45 10° WNW 18:25:49 31° NNW 18:34:15 10° NE visible
12 Dec 9.7 20:37:20 10° NW 20:40:05 15° NNW 20:40:05 15° NNW visible
13 Dec 9.2 19:33:40 10° NW 19:42:10 21° N 19:43:58 20° N visible
14 Dec 9.3 18:29:03 10° WNW 18:40:53 26° NNW 18:47:51 13° NE visible
14 Dec 9.8 20:51:46 10° NW 20:53:40 14° NNW 20:53:40 14° NNW visible
15 Dec 9.2 19:48:59 10° NW 19:57:32 22° N 19:57:34 22° N visible
16 Dec 9.2 18:45:01 10° WNW 18:56:14 25° N 19:01:30 17° NNE visible
16 Dec 9.9 21:05:46 10° NW 21:07:19 14° NW 21:07:19 14° NW visible
